Other Public Products
Issued by NWS Grand Forks, ND

Home | Current Version | Previous Version | Graphics & Text | Print | Product List | Glossary On
Versions: 1 2 3 4 5 6 7 8 9 10 11 12 13 14 15 16 17 18 19 20 21 22 23 24 25 26 27 28 29 30 31 32 33 34 35 36 37 38 39 40 41 42 43 44 45 46 47 48 49 50
546
FPUS83 KFGF 250731
OPUFGF
PRAIRIE TO PINES WEATHER ROUNDUP
NATIONAL WEATHER SERVICE EASTERN NORTH DAKOTA/GRAND FORKS ND
100 AM CST SAT FEB 25 2017

 **SATELLITE DATA USED TO AUGMENT SKY COVER AT AUTOMATED STATIONS**
 *****  WEATHER ACROSS EASTERN NORTH DAKOTA  *****

CITY           SKY/WX    TMP DP  RH WIND       PRES   REMARKS
GRAND FORKS    FAIR      16   8  71 CALM      30.06F
GRAND FORKS AF FAIR      14  10  85 CALM      30.06F
GRAND CITY NWS NOT AVBL
BUXTON         NOT AVBL
DEVILS LAKE    FAIR      14  11  87 SW5       30.01F WCI   6
FARGO          FAIR      15  11  83 NW6       30.07F WCI   6
WAHPETON ARPT  FAIR      18  12  79 NW8       30.07F WCI   7
$$

 *****  WEATHER ACROSS CENTRAL AND WESTERN NORTH DAKOTA  *****

CITY           SKY/WX    TMP DP  RH WIND       PRES   REMARKS
JAMESTOWN      FAIR      15  12  88 SW5       30.04F WCI   8
BISMARCK       CLOUDY    17  14  88 CALM      30.06F
MINOT          LGT SNOW  24  19  81 SW8       29.98F WCI  15
MINOT AFB      LGT SNOW  23  19  86 SW9       29.97F FOG     WCI  13
GARRISON         N/A     14  11  87 SW3       30.00F
WILLISTON      CLOUDY    23  20  88 SW5       30.01F WCI  17
DICKINSON      MOCLDY    18  14  84 SW5       29.97F WCI  11
HETTINGER      CLOUDY    20  14  77 CALM      30.01F
$$

 *****  OTHER OBSERVATIONS NORTHEAST NORTH DAKOTA  *****

CITY           SKY/WX    TMP DP  RH WIND       PRES   REMARKS
WALHALLA       NOT AVBL
LANGDON        NOT AVBL
CAVALIER         N/A     14  10  85 SW5       30.04F WCI   6
GRAFTON        CLOUDY    12  12 100 CALM      30.07F
CANDO          NOT AVBL
FORT TOTTEN      N/A     12  12  99 S2        29.95S
ROLLA          PTSUNNY   14  10  85 W12       29.96F WCI   0
RUGBY            N/A     16  12  86 SW9       29.99F WCI   4
 ***** THE ABOVE OBSERVATIONS ARE NON NWS ARE NOT QUALITY
        CONTROLLED AND MAY MIS-REPORT RAIN FOR SNOW...
$$

 *****  OTHER OBSERVATIONS SOUTHEAST NORTH DAKOTA *****

CITY           SKY/WX    TMP DP  RH WIND       PRES   REMARKS
COOPERSTOWN    FAIR      14  12  92 SW5       30.02F WCI   6
VALLEY CITY    FAIR      14  14 100 W5        30.06F WCI   6
OAKES          NOT AVBL
GWINNER        FAIR      19  16  86 W9        30.07F WCI   9
SHEYENNE NWR     N/A     13   9  83 W6        29.95S WCI   4
BUFFALO        NOT AVBL
WYNDMERE         N/A     18  16  93 NW6         N/A  WCI   9
 ***** THE ABOVE OBSERVATIONS ARE NON NWS ARE NOT QUALITY
       CONTROLLED AND MAY MIS-REPORT RAIN FOR SNOW...
$$

  *****  WEATHER ACROSS NORTHERN MINNESOTA  *****

CITY           SKY/WX    TMP DP  RH WIND       PRES   REMARKS
FLAG ISLAND    FAIR       5   0  78 W10       29.98S WCI -10
WARROAD        FAIR       3   0  85 W5        30.00F WCI  -6
ROSEAU         FAIR       5   0  78 W3        30.01F
HALLOCK        MOCLDY     9   7  92 CALM      30.04F
THF RVR FALLS  FAIR      10   7  87 W7        30.04F WCI  -1
HALSTAD          N/A     15  12  88 N3          N/A
FOSSTON        FAIR       9   5  85 NW8       30.01F WCI  -4
BAUDETTE       FAIR       6  -1  73 NW10      29.97F WCI  -9
WASKISH        FAIR       7   3  85 NW6       29.98S WCI  -3
CROOKSTON      FAIR      14  10  85 NW7       30.06F WCI   4
$$
  *****  WEATHER ACROSS CENTRAL AND WEST MINNESOTA  *****

CITY           SKY/WX    TMP DP  RH WIND       PRES   REMARKS
BEMIDJI        FAIR       7   1  76 NW10      29.96F WCI  -7
PARK RAPIDS    FAIR      11   1  64 NW12      29.95F WCI  -3
WADENA         FAIR      10   5  79 NW10      29.97S WCI  -3
DETROIT LAKES  FAIR      14   9  79 NW10      30.01S WCI   1
MOORHEAD       FAIR      16  12  86 NW6       30.07F WCI   7
FERGUS FALLS   FAIR      16   9  73 NW14      30.08F WCI   1
ELBOW LAKE     FAIR      15   8  72 NW15      30.03S WCI   0
MORRIS MN      FAIR      16   9  73 NW16      30.02S WCI   0
STAPLES        FAIR      10   3  72 NW12      29.96S WCI  -4
WHEATON        FAIR      18  12  79 NW9       30.08F WCI   6
$$
  *****  WEATHER ELSEWHERE ACROSS MINNESOTA  *****

CITY           SKY/WX    TMP DP  RH WIND       PRES   REMARKS
DULUTH         FAIR      12   3  67 N14G23    29.81F WCI  -3
INTRNTL FALLS  FAIR       4   0  83 NW8       29.93F WCI  -9
ELY            CLOUDY     9   1  72 NW8G16    29.82F WCI  -4
CLOQUET        FAIR      10   3  72 NW12      29.84S WCI  -4
BRAINERD       FAIR      13   5  70 NW16      29.94S WCI  -3
HIBBING        FAIR       8   2  76 N15       29.86S WCI  -9
ALEXANDRIA     FAIR      14   5  67 N14       29.98R WCI  -1
SAINT CLOUD    FAIR      17   7  64 N15G22    29.93S WCI   2
MINNEAPOLIS    FAIR      19   3  49 N17G29    29.90R WCI   4
$$

  *****  WEATHER ACROSS SOUTH DAKOTA  *****

CITY           SKY/WX    TMP DP  RH WIND       PRES   REMARKS
SIOUX FALLS    FAIR      17  12  80 NW12      30.06R WCI   4
BROOKINGS      FAIR      16  13  88 NW10      30.04R WCI   4
WATERTOWN      FAIR      16  12  84 NW13      30.04R WCI   2
HURON          FAIR      16  14  92 W7        30.11S WCI   6
SISSETON         N/A     17  14  88 N12       30.07S WCI   4
ABERDEEN       FAIR      15  11  83 W5        30.10S WCI   8
MITCHELL       FAIR      20  16  84 NW10      30.13R WCI   9
PIERRE         CLOUDY    21  14  74 S3        30.09F
MOBRIDGE       CLOUDY    22  15  75 SE3       30.05F
RAPID CITY     CLOUDY    13  10  88 CALM      30.00F
$$

  *****  SOME WEATHER IN NEARBY STATES *****

CITY           SKY/WX    TMP DP  RH WIND       PRES   REMARKS
GLASGOW MT     FAIR      19  16  88 NW8       30.02F WCI   9
GREAT FALLS MT FAIR      19  15  84 S7        30.02F WCI  10
CHEYENNE WY    FAIR       7   1  76 W5        29.94F WCI  -2
SCOTTSBLUFF NE FOG        8   5  87 CALM      30.02F VSB 1/4
OMAHA NE       FAIR      22  13  68 NW16      30.08R WCI   8
DES MOINES IA  MOCLDY    21  14  74 NW17G24   29.95R WCI   7
DAVENPORT IA   LGT SNOW  23  18  81 NW21G32   29.76R WCI   8
CHICAGO IL     CLOUDY    32  26  78 W15       29.60S WCI  22
EAU CLAIRE WI  FLURRIES  18  10  71 NW8       29.79S WCI   8
LA CROSSE WI   FLURRIES  21  13  71 NW16      29.80S WCI   7
$$

  *****  SOME NATIONAL WEATHER *****

CITY           SKY/WX    TMP DP  RH WIND       PRES   REMARKS
LA GUARDIA NY  CLOUDY    54  51  90 S7        29.83
RALEIGH NC     FAIR      62  57  83 S7        29.80F
ATLANTA GA     FAIR      64  55  72 SW7       29.78S
NEW ORLEANS LA FAIR      66  64  93 W7        29.86R
OKLAHOMA CITY  FAIR      31  22  69 N16G23    30.17R WCI  20
ALBUQUERQUE NM FAIR      33  -4  20 N7        30.09R
SALT LAKE CITY FAIR      23  13  65 SE7       30.13F WCI  15
LOS ANGELES CA FAIR      52  43  71 CALM      30.17S
BOISE ID       FAIR      26  17  68 SE6       30.15S WCI  19
SEATTLE WA     CLOUDY    40  33  76 CALM      30.24S
$$

*** WEATHER ACROSS MANITOBA...SASKATCHEWAN AND ONTARIO ***
                ***ONTARIO***

CITY           SKY/WX    TMP DP  RH WIND       PRES   REMARKS
GERALDTON      CLOUDY     5   1  85 NE8       29.73F WCI  -8
THUNDER BAY    FLURRIES  14   7  73 N13       29.77F WCI   0
SIOUX LOOKOUT  FLURRIES  10   3  72 N5        29.87F WCI   2
TORONTO        HVY RAIN  37  36  93 SE7       29.52R FOG
BIG TROUT LK   CLOUDY    -9 -13  84 VRB2      29.97F
PICKLE LAKE    NOT AVBL
DRYDEN         CLOUDY     7   3  85 NW8       29.88F WCI  -6
KENORA         CLEAR      5  -2  72 NW7       29.93F WCI  -7
$$
                *** MANITOBA***

CITY           SKY/WX    TMP DP  RH WIND       PRES   REMARKS
BRANDON        LGT SNOW  16  14  93 SW3       29.97F
DAUPHIN        MOCLDY    19  16  86 W6        29.97F WCI  11
ISLAND LAKE    FLURRIES   0  -4  85 W2        29.97F
PILOT MOUND      N/A     14  10  85 S6          N/A  WCI   5
THE PAS        FLURRIES   9   3  78 NW13      30.00F WCI  -7
THOMPSON       PTCLDY   -18 -24  76 VRB2      29.98F
WINNIPEG       CLEAR     10   5  79 SW8       30.03F WCI  -1
LYNN LAKE      FLURRIES  -6  -9  84 W7        29.95F WCI -20
CHURCHILL      PTCLDY   -11 -15  84 S8        30.06F WCI -28
GILLAM         CLEAR    -15 -20  76 N3        30.02F
$$
                ***SASKATCHEWAN***

CITY           SKY/WX    TMP DP  RH WIND       PRES   REMARKS
ESTEVAN        FOG       21  21 100 NW13      29.98S VSB 1/4 WCI   9
KINDERSLEY     PTCLDY    10   5  79 N8        30.07F WCI  -1
LLOYDMINSTER   CLEAR      1  -4  78 NW3       30.06F
PRINCE ALBERT  FLURRIES   7  -2  66 N9        30.08F WCI  -7
REGINA         PTCLDY    18  16  93 NW10      30.00F WCI   6
YORKTON        LGT SNOW  18  16  93 NW9       29.94F WC



USA.gov is the U.S. government's official web portal to all federal, state and local government web resources and services.